Tacoma, WA

1:25 AM PST on February 11, 2016 (GMT -0800)
McChord Air Force Base

Weather History for KTCM - December, 2013

Change the Weather History Date:

Monday, December 23, 2013

  Actual Average Record
Temperature  
Mean Temperature 44 °F -  
Max Temperature 51 °F 43 °F 59 °F (1963)
Min Temperature 36 °F 31 °F 4 °F (1983)
Degree Days  
Heating Degree Days 20    
Moisture  
Dew Point 47 °F    
Average Humidity 96    
Maximum Humidity 100    
Minimum Humidity 75    
Precipitation  
Precipitation 0.08 in - - ()
Sea Level Pressure  
Sea Level Pressure 30.25 in    
Wind  
Wind Speed 13 mph (SSW)    
Max Wind Speed 23 mph    
Max Gust Speed 36 mph    
Visibility 10 miles    
Events Rain    
Averages and records for this station are not official NWS values.
T = Trace of Precipitation, MM = Missing Value Source: NWS Daily Summary

Daily Weather History Graph

Daily Weather History Graph

Search for Another Location

Airport or City:

Trip Planner

Search our weather history database for the weather conditions in past years. The results will help you decide how hot, cold, wet, or windy it might be!

Date:

Astronomy

Dec. 23, 2013 Rise Set
Actual Time 7:54 AM PST 4:24 PM PST
Civil Twilight 7:18 AM PST 4:59 PM PST
Nautical Twilight 6:39 AM PST 5:38 PM PST
Astronomical Twilight 6:02 AM PST 6:15 PM PST
Moon 11:03 PM PST (12/23) 11:00 AM PST (12/23)
Length of Visible Light 9h 40m
Length of Day
8h 29m
Waning Gibbous, 67% of the Moon is Illuminated
Dec 23
Waning Gibbous
Dec 25
Last Quarter
Jan 1
New
Jan 7
First Quarter
Jan 15
Full

Hourly Weather History & Observations

Time (PST) Temp. Windchill Dew Point Humidity Pressure Visibility Wind Dir Wind Speed Gust Speed Precip Events Conditions
12:46 AM 50.0 °F - 48.2 °F 94% 30.28 in 10.0 mi SSW 10.4 mph - N/A Rain Light Rain
12:58 AM 49.1 °F - 48.9 °F 99% 30.29 in 10.0 mi SSW 10.4 mph - 0.00 in Rain Light Rain
1:11 AM 48.2 °F - 48.2 °F 100% 30.28 in 10.0 mi SSW 8.1 mph - N/A   Overcast
1:41 AM 48.2 °F - 48.2 °F 100% 30.27 in 10.0 mi SSW 9.2 mph - N/A   Overcast
1:58 AM 48.9 °F - 48.6 °F 99% 30.29 in 10.0 mi SSW 10.4 mph - 0.01 in   Overcast
2:20 AM 50.0 °F - 48.2 °F 94% 30.28 in 10.0 mi SSW 9.2 mph - N/A Rain Light Rain
2:48 AM 48.2 °F - 48.2 °F 100% 30.27 in 9.0 mi South 10.4 mph - N/A Rain Light Rain
2:58 AM 48.7 °F - 48.6 °F 99% 30.29 in 8.0 mi South 11.5 mph - 0.01 in Rain Light Rain
3:08 AM 48.2 °F - 48.2 °F 100% 30.27 in 9.0 mi SSW 12.7 mph - N/A Rain Light Rain
3:53 AM 48.2 °F - 48.2 °F 100% 30.25 in 10.0 mi SSW 11.5 mph - N/A Rain Light Rain
3:55 AM 48.2 °F - 48.2 °F 100% 30.25 in 10.0 mi SSW 12.7 mph - N/A   Overcast
3:58 AM 48.4 °F - 48.2 °F 99% 30.27 in 10.0 mi South 11.5 mph - 0.01 in   Overcast
4:03 AM 48.2 °F - 48.2 °F 100% 30.25 in 10.0 mi SSW 12.7 mph - N/A   Overcast
4:05 AM 48.2 °F - 48.2 °F 100% 30.25 in 10.0 mi SSW 10.4 mph - N/A Rain Light Rain
4:24 AM 48.2 °F - 48.2 °F 100% 30.24 in 10.0 mi South 11.5 mph - N/A   Overcast
4:32 AM 48.2 °F - 48.2 °F 100% 30.24 in 10.0 mi South 12.7 mph - N/A Rain Light Rain
4:43 AM 48.2 °F - 48.2 °F 100% 30.23 in 10.0 mi South 12.7 mph - N/A   Overcast
4:58 AM 48.6 °F - 48.2 °F 99% 30.24 in 10.0 mi South 11.5 mph - 0.00 in   Overcast
5:33 AM 48.2 °F - 48.2 °F 100% 30.22 in 10.0 mi South 8.1 mph - N/A   Overcast
5:58 AM 48.6 °F - 48.2 °F 99% 30.24 in 10.0 mi South 9.2 mph - N/A   Overcast
6:03 AM 48.2 °F - 48.2 °F 100% 30.21 in 10.0 mi South 9.2 mph - N/A   Overcast
6:06 AM 48.2 °F - 48.2 °F 100% 30.21 in 10.0 mi South 10.4 mph - N/A Rain Light Rain
6:16 AM 48.2 °F - 48.2 °F 100% 30.21 in 10.0 mi South 13.8 mph - N/A   Overcast
6:23 AM 48.2 °F - 48.2 °F 100% 30.21 in 10.0 mi South 12.7 mph - N/A Rain Light Rain
6:43 AM 48.2 °F - 48.2 °F 100% 30.21 in 10.0 mi South 10.4 mph - N/A   Overcast
6:47 AM 48.2 °F - 48.2 °F 100% 30.20 in 10.0 mi South 11.5 mph - N/A Rain Light Rain
6:58 AM 48.6 °F - 48.2 °F 99% 30.21 in 10.0 mi South 12.7 mph - 0.01 in Rain Light Rain
6:59 AM 48.2 °F - 48.2 °F 100% 30.20 in 10.0 mi South 12.7 mph - N/A   Overcast
7:26 AM 48.2 °F - 48.2 °F 100% 30.20 in 10.0 mi SSW 16.1 mph - N/A Rain Light Rain
7:58 AM 48.7 °F - 48.6 °F 99% 30.21 in 8.0 mi SSW 17.3 mph 24.2 mph 0.01 in Rain Light Rain
8:11 AM 48.2 °F - 48.2 °F 100% 30.19 in 10.0 mi SSW 13.8 mph - N/A   Overcast
8:20 AM 48.2 °F - 48.2 °F 100% 30.19 in 10.0 mi SSW 16.1 mph - N/A Rain Light Rain
8:55 AM 50.0 °F - 48.2 °F 94% 30.20 in 10.0 mi SSW 16.1 mph - N/A Rain Light Rain
8:58 AM 50.0 °F - 48.2 °F 94% 30.22 in 10.0 mi SSW 16.1 mph - 0.01 in Rain Light Rain
9:03 AM 48.2 °F - 48.2 °F 100% 30.20 in 10.0 mi SSW 17.3 mph - N/A Rain Light Rain
9:08 AM 48.2 °F - 48.2 °F 100% 30.20 in 10.0 mi SSW 16.1 mph 21.9 mph N/A Rain Light Rain
9:28 AM 50.0 °F - 48.2 °F 94% 30.19 in 10.0 mi SSW 15.0 mph 25.3 mph N/A Rain Light Rain
9:35 AM 50.0 °F - 48.2 °F 94% 30.20 in 10.0 mi SSW 18.4 mph 23.0 mph N/A   Overcast
9:54 AM 50.0 °F - 48.2 °F 94% 30.20 in 5.0 mi SSW 19.6 mph 27.6 mph N/A Rain Light Rain
9:58 AM 49.3 °F - 49.1 °F 99% 30.22 in 5.0 mi SSW 19.6 mph 27.6 mph 0.01 in Rain Light Rain
10:03 AM 50.0 °F - 48.2 °F 94% 30.20 in 8.0 mi SSW 16.1 mph 24.2 mph N/A Rain Light Rain
10:10 AM 50.0 °F - 48.2 °F 94% 30.20 in 10.0 mi SSW 17.3 mph 27.6 mph N/A   Overcast
10:16 AM 50.0 °F - 50.0 °F 100% 30.20 in 10.0 mi SSW 16.1 mph 27.6 mph N/A   Light Drizzle
10:31 AM 50.0 °F - 48.2 °F 94% 30.20 in 6.0 mi SSW 18.4 mph - N/A   Light Drizzle
10:35 AM 50.0 °F - 48.2 °F 94% 30.20 in 9.0 mi SSW 17.3 mph - N/A   Overcast
10:40 AM 50.0 °F - 50.0 °F 100% 30.20 in 10.0 mi SSW 18.4 mph - N/A   Overcast
10:45 AM 50.0 °F - 50.0 °F 100% 30.20 in 10.0 mi SSW 16.1 mph - N/A   Overcast
10:55 AM 50.0 °F - 50.0 °F 100% 30.20 in 10.0 mi SSW 17.3 mph - N/A   Mostly Cloudy
10:58 AM 49.8 °F - 49.6 °F 99% 30.22 in 10.0 mi SSW 16.1 mph - 0.01 in   Mostly Cloudy
11:13 AM 50.0 °F - 50.0 °F 100% 30.20 in 10.0 mi SSW 16.1 mph - N/A   Mostly Cloudy
11:18 AM 50.0 °F - 50.0 °F 100% 30.20 in 10.0 mi SSW 17.3 mph - N/A   Mostly Cloudy
11:58 AM 51.1 °F - 50.9 °F 99% 30.22 in 10.0 mi SW 17.3 mph 25.3 mph N/A   Mostly Cloudy
12:07 PM 51.8 °F - 50.0 °F 94% 30.21 in 10.0 mi WSW 16.1 mph - N/A Rain Light Rain
12:16 PM 51.8 °F - 50.0 °F 94% 30.21 in 10.0 mi WSW 13.8 mph 28.8 mph N/A   Overcast
12:26 PM 51.8 °F - 48.2 °F 88% 30.22 in 10.0 mi WSW 16.1 mph 23.0 mph N/A   Light Drizzle
12:27 PM 51.8 °F - 48.2 °F 88% 30.22 in 10.0 mi West 20.7 mph 25.3 mph N/A   Overcast
12:28 PM 51.8 °F - 48.2 °F 88% 30.22 in 9.0 mi WSW 19.6 mph 26.5 mph N/A Rain Light Rain
12:33 PM 50.0 °F - 46.4 °F 87% 30.21 in 8.0 mi WSW 20.7 mph 27.6 mph N/A Rain Light Rain
12:38 PM 50.0 °F - 46.4 °F 87% 30.21 in 8.0 mi WSW 20.7 mph 27.6 mph N/A Rain Light Rain
12:40 PM 50.0 °F - 46.4 °F 87% 30.22 in 10.0 mi WSW 17.3 mph 27.6 mph N/A   Mostly Cloudy
12:58 PM 50.5 °F - 43.7 °F 77% 30.23 in 10.0 mi WSW 23.0 mph 35.7 mph 0.00 in   Partly Cloudy
1:58 PM 49.8 °F - 43.3 °F 78% 30.26 in 10.0 mi WSW 21.9 mph 29.9 mph N/A   Clear
2:58 PM 49.5 °F - 41.7 °F 75% 30.27 in 10.0 mi WSW 23.0 mph 31.1 mph N/A   Clear
3:58 PM 48.4 °F - 41.4 °F 77% 30.32 in 10.0 mi WSW 12.7 mph - N/A   Partly Cloudy
4:58 PM 46.4 °F 39.5 °F 39.6 °F 77% 30.34 in 10.0 mi SW 17.3 mph 24.2 mph N/A   Clear
5:58 PM 45.0 °F 38.9 °F 39.0 °F 80% 30.37 in 10.0 mi SW 12.7 mph 21.9 mph N/A   Clear
6:58 PM 43.7 °F 37.7 °F 39.6 °F 85% 30.40 in 10.0 mi SSW 11.5 mph - N/A   Clear
7:58 PM 40.3 °F 37.1 °F 39.4 °F 97% 30.45 in 10.0 mi SSE 4.6 mph - N/A   Clear
8:58 PM 39.4 °F 33.8 °F 39.2 °F 99% 30.47 in 10.0 mi South 8.1 mph - N/A   Partly Cloudy
9:58 PM 39.2 °F 33.6 °F 38.8 °F 99% 30.50 in 10.0 mi South 8.1 mph - N/A   Clear
10:58 PM 38.1 °F 32.3 °F 37.9 °F 99% 30.52 in 10.0 mi South 8.1 mph - N/A   Partly Cloudy
11:58 PM 36.7 °F 30.5 °F 36.5 °F 99% 30.53 in 10.0 mi South 8.1 mph - N/A   Clear